Tracking 28790 objects as of 18-Apr-2024
HD Live streaming from Space Station
objects crossing your sky now

COSMOS 2251 DEB

Track COSMOS 2251 DEB now!
10-day predictions


NORAD ID: 35459
Int'l Code: 1993-036ALD
Perigee: 767.6 km
Apogee: 793.6 km
Inclination: 73.9 °
Period: 100.3 minutes
Semi major axis: 7151 km
RCS: 0.0096 m2 (small)
Launch date: June 16, 1993
Source: Commonwealth of Independent States (former USSR) (CIS)
Launch site: PLESETSK MISSILE AND SPACE COMPLEX (PKMTR)

Note: This is SATELLITE DEBRIS
Your satellite tracking list
Your tracking list is empty




NASA's NSSDC Master Catalog

Two Line Element Set (TLE):
1 35459U 93036ALD 24107.58579728  .00002132  00000-0  74939-3 0  9995
2 35459  73.8727 230.4630 0018169 298.3857  61.5462 14.35483955496715
Source of the keplerian elements: AFSPC